FW5442 Weather Reports


Display with metric or nautical units.
time (UTC)temp
F
wind
direction
speed
MPH
gust
MPH
rain 1hr
in
rain 24hr
in
rain mn
in
humidity
%
barometer
mb
20260902191605 96 133 5.0 9.0 0.00 0.01 0.01 47 1015.2
20260902191057 96 243 3.0 7.0 0.00 0.01 0.01 45 1015.2
20260902190555 96 170 3.0 9.0 0.00 0.01 0.01 46 1015.3
20260902190108 97 90 4.0 10.0 0.00 0.01 0.01 46 1015.4
20260902185556 97 92 4.0 10.0 0.00 0.01 0.01 46 1015.4
20260902185053 97 77 6.0 10.0 0.00 0.01 0.01 45 1015.6
20260902184658 97 118 5.0 10.0 0.00 0.01 0.01 45 1015.7
20260902184055 96 91 6.0 9.0 0.00 0.01 0.01 46 1015.8
20260902183557 96 108 5.0 9.0 0.00 0.01 0.01 47 1015.8
20260902183118 97 112 2.0 13.0 0.00 0.01 0.01 46 1015.9
20260902182556 97 216 5.0 13.0 0.00 0.01 0.01 45 1016.0
20260902182058 97 160 6.0 13.0 0.00 0.01 0.01 45 1016.1
20260902181602 96 140 5.0 10.0 0.00 0.01 0.01 46 1016.0
20260902181055 95 95 4.0 9.0 0.00 0.01 0.01 46 1016.1
20260902180556 95 108 6.0 10.0 0.00 0.01 0.01 46 1016.3
20260902180105 96 120 5.0 10.0 0.00 0.01 0.01 46 1016.4
20260902175555 95 0 0.0 9.0 0.00 0.01 0.01 49 1016.5
20260902175058 94 85 4.0 9.0 0.00 0.01 0.01 50 1016.5
20260902174603 95 72 4.0 10.0 0.00 0.01 0.01 48 1016.5
20260902174056 94 98 3.0 10.0 0.00 0.01 0.01 49 1016.5
20260902173556 95 79 3.0 11.0 0.00 0.01 0.01 50 1016.7
20260902173102 95 86 6.0 11.0 0.00 0.01 0.01 48 1016.7
20260902172555 96 97 3.0 11.0 0.00 0.01 0.01 47 1016.6
20260902172057 95 136 7.0 11.0 0.00 0.01 0.01 47 1016.8
20260902171606 95 119 5.0 8.0 0.00 0.01 0.01 47 1017.0
20260902171057 94 91 2.0 9.0 0.00 0.01 0.01 50 1017.1
20260902170555 94 0 4.0 9.0 0.00 0.01 0.01 49 1017.1
20260902165556 95 149 1.0 4.0 0.00 0.01 0.01 48 1017.2
20260902165055 94 0 0.0 4.0 0.00 0.01 0.01 49 1017.2
20260902164607 94 8 2.0 8.0 0.00 0.01 0.01 49 1017.2
20260902164056 94 323 3.0 8.0 0.00 0.01 0.01 50 1017.5
20260902163556 93 82 4.0 9.0 0.00 0.01 0.01 50 1017.4
20260902163103 93 222 2.0 9.0 0.00 0.01 0.01 50 1017.4
20260902162555 93 287 4.0 8.0 0.00 0.01 0.01 50 1017.6
20260902162056 94 0 0.0 8.0 0.00 0.01 0.01 50 1017.7
20260902161606 94 121 5.0 8.0 0.00 0.01 0.01 51 1017.6
20260902161055 93 81 1.0 6.0 0.00 0.01 0.01 52 1017.8
20260902160555 93 70 2.0 6.0 0.00 0.01 0.01 51 1017.7
20260902155556 93 150 3.0 6.0 0.00 0.01 0.01 52 1017.8
20260902155055 92 0 2.0 4.0 0.00 0.01 0.01 54 1017.9
20260902154603 92 93 1.0 8.0 0.00 0.01 0.01 54 1017.9
20260902154055 92 78 3.0 8.0 0.00 0.01 0.01 55 1017.9
20260902153555 91 100 1.0 8.0 0.00 0.01 0.01 55 1017.8
20260902153107 90 0 3.0 8.0 0.00 0.01 0.01 55 1017.9
20260902152556 90 319 4.0 6.0 0.00 0.01 0.01 55 1017.7
20260902152054 90 351 3.0 5.0 0.00 0.01 0.01 55 1017.7
20260902151605 90 303 1.0 5.0 0.00 0.01 0.01 55 1017.8
20260902151056 90 209 0.0 10.0 0.00 0.01 0.01 56 1017.8
20260902150556 89 281 2.0 10.0 0.00 0.01 0.01 57 1017.8
20260902145556 89 235 3.0 7.0 0.00 0.01 0.01 57 1017.8
20260902145055 88 0 2.0 7.0 0.00 0.01 0.01 58 1017.8
20260902144607 89 309 4.0 6.0 0.00 0.01 0.01 59 1017.7
20260902144055 88 0 2.0 9.0 0.00 0.01 0.01 60 1017.8
20260902143555 87 212 4.0 9.0 0.00 0.01 0.01 61 1017.9
20260902143104 87 331 3.0 7.0 0.00 0.01 0.01 61 1017.8
20260902142555 87 304 3.0 9.0 0.00 0.01 0.01 61 1017.7
20260902142052 87 309 2.0 9.0 0.00 0.01 0.01 61 1017.7
20260902141556 87 266 4.0 7.0 0.01 0.01 0.01 62 1017.8
20260902141057 86 271 4.0 7.0 0.01 0.01 0.01 62 1017.8
20260902140555 86 286 6.0 7.0 0.01 0.01 0.01 62 1017.9
20260902140104 86 308 2.0 8.0 0.01 0.01 0.01 64 1017.8
20260902135554 85 275 4.0 8.0 0.01 0.01 0.01 64 1017.8
20260902135056 85 304 5.0 7.0 0.01 0.01 0.01 64 1017.9
20260902134611 85 236 3.0 6.0 0.01 0.01 0.01 64 1017.9
20260902134056 85 264 3.0 5.0 0.01 0.01 0.01 65 1017.8
20260902133555 85 236 1.0 10.0 0.01 0.01 0.01 67 1017.8
20260902133101 84 0 0.0 10.0 0.01 0.01 0.01 68 1017.8
20260902132555 84 0 1.0 10.0 0.01 0.01 0.01 69 1017.9
20260902132055 83 0 0.0 6.0 0.01 0.01 0.01 73 1017.9
20260902131603 81 0 0.0 6.0 0.00 0.00 0.00 75 1017.9
20260902131056 81 191 0.0 8.0 0.00 0.00 0.00 44 1017.9
20260902130556 82 0 0.0 8.0 0.00 0.00 0.00 43 1017.8
20260902125555 0 0.0 0.0 0.00 0.00 0.00 1017.9
20260902125055 0 0.0 0.0 0.00 0.00 0.00 1017.8
20260902124616 0 0.0 0.0 0.00 0.00 0.00 1017.6
20260902124055 0 0.0 0.0 0.00 0.00 0.00 1017.6
20260902123556 0 0.0 0.0 0.00 0.00 0.00 1017.6
20260902123122 0 0.0 0.0 0.00 0.00 0.00 1017.6
20260902122557 0 0.0 0.0 0.00 0.00 0.00 1017.4
20260902122052 0 0.0 0.0 0.00 0.00 0.00 1017.4
20260902121608 0 0.0 0.0 0.00 0.00 0.00 1017.4
20260902121055 0 0.0 0.0 0.00 0.00 0.00 1017.2
20260902120555 0 0.0 0.0 0.00 0.00 0.00 1017.2
20260902120101 0 0.0 0.0 0.00 0.00 0.00 1017.2
20260902115556 0 0.0 0.0 0.00 0.00 0.00 1017.1
20260902115056 0 0.0 0.0 0.00 0.00 0.00 1017.0
20260902114606 0 0.0 0.0 0.00 0.00 0.00 1016.8
20260902114055 0 0.0 0.0 0.00 0.00 0.00 1016.9
20260902113555 0 0.0 0.0 0.00 0.00 0.00 1016.8
20260902113111 0 0.0 0.0 0.00 0.00 0.00 1017.0
20260902112552 0 0.0 0.0 0.00 0.00 0.00 1016.9
20260902112055 0 0.0 0.0 0.00 0.00 0.00 1017.0
20260902111559 0 0.0 0.0 0.00 0.00 0.00 1016.8
20260902111055 0 0.0 0.0 0.00 0.00 0.00 1016.8
20260902110556 0 0.0 0.0 0.00 0.00 0.00 1016.7
20260902110104 0 0.0 0.0 0.00 0.00 0.00 1016.6
20260902105555 0 0.0 0.0 0.00 0.00 0.00 1016.6
20260902105058 0 0.0 0.0 0.00 0.00 0.00 1016.4
20260902104600 0 0.0 0.0 0.00 0.00 0.00 1016.4
20260902104055 0 0.0 0.0 0.00 0.00 0.00 1016.5
20260902103553 0 0.0 0.0 0.00 0.00 0.00 1016.4
20260902103106 0 0.0 0.0 0.00 0.00 0.00 1016.3
20260902102555 0 0.0 0.0 0.00 0.00 0.00 1016.4
20260902102053 0 0.0 0.0 0.00 0.00 0.00 1016.5
20260902101556 0 0.0 0.0 0.00 0.00 0.00 1016.5
20260902101053 0 0.0 0.0 0.00 0.00 0.00 1016.5
20260902100553 0 0.0 0.0 0.00 0.00 0.00 1016.5
20260902100122 0 0.0 0.0 0.00 0.00 0.00 1016.4
20260902095554 0 0.0 0.0 0.00 0.00 0.00 1016.3
20260902095053 0 0.0 0.0 0.00 0.00 0.00 1016.4
20260902094603 0 0.0 0.0 0.00 0.00 0.00 1016.4
20260902094054 0 0.0 0.0 0.00 0.00 0.00 1016.5
20260902093553 0 0.0 0.0 0.00 0.00 0.00 1016.5
20260902093057 0 0.0 0.0 0.00 0.00 0.00 1016.4
20260902092555 0 0.0 0.0 0.00 0.00 0.00 1016.2
20260902092056 0 0.0 0.0 0.00 0.00 0.00 1016.2
20260902091610 0 0.0 0.0 0.00 0.00 0.00 1016.1
20260902091054 0 0.0 0.0 0.00 0.00 0.00 1015.9
20260902090554 0 0.0 0.0 0.00 0.00 0.00 1016.0
20260902090104 0 0.0 0.0 0.00 0.00 0.00 1016.0
20260902085554 0 0.0 0.0 0.00 0.00 0.00 1016.1
20260902085053 0 0.0 0.0 0.00 0.00 0.00 1016.0
20260902084603 0 0.0 0.0 0.00 0.00 0.00 1015.9
20260902084053 0 0.0 0.0 0.00 0.00 0.00 1015.9
20260902083553 0 0.0 0.0 0.00 0.00 0.00 1015.9
20260902083058 0 0.0 0.0 0.00 0.00 0.00 1015.9
20260902082556 0 0.0 0.0 0.00 0.00 0.00 1015.8
20260902082054 0 0.0 0.0 0.00 0.00 0.00 1015.7
20260902081601 0 0.0 0.0 0.00 0.00 0.00 1015.6
20260902081054 0 0.0 0.0 0.00 0.00 0.00 1015.7
20260902080555 0 0.0 0.0 0.00 0.00 0.00 1015.8
20260902080115 0 0.0 0.0 0.00 0.00 0.00 1015.8
20260902075553 0 0.0 0.0 0.00 0.00 0.00 1015.6
20260902075053 0 0.0 0.0 0.00 0.00 0.00 1015.6
20260902074616 0 0.0 0.0 0.00 0.00 0.00 1015.5
20260902074053 0 0.0 0.0 0.00 0.00 0.00 1015.5
20260902073553 0 0.0 0.0 0.00 0.00 0.00 1015.5
20260902073108 0 0.0 0.0 0.00 0.00 0.00 1015.5
20260902072556 0 0.0 0.0 0.00 0.00 0.00 1015.6
20260902072053 0 0.0 0.0 0.00 0.00 0.00 1015.8
20260902071629 0 0.0 0.0 0.00 0.00 0.00 1015.7
20260902071055 0 0.0 0.0 0.00 0.00 0.00 1015.5
20260902070553 0 0.0 0.0 0.00 0.00 0.00 1015.6
20260902070056 0 0.0 0.0 0.00 0.00 0.00 1015.5
20260902065553 0 0.0 0.0 0.00 0.00 0.00 1015.6
20260902065054 0 0.0 0.0 0.00 0.00 0.00 1015.6
20260902064606 0 0.0 0.0 0.00 0.00 0.00 1015.7
20260902064053 0 0.0 0.0 0.00 0.00 0.00 1015.4
20260902063553 0 0.0 0.0 0.00 0.00 0.00 1015.5
20260902063101 0 0.0 0.0 0.00 0.00 0.00 1015.5
20260902062553 0 0.0 0.0 0.00 0.00 0.00 1015.4
20260902062056 0 0.0 0.0 0.00 0.00 0.00 1015.6
20260902061611 0 0.0 0.0 0.00 0.00 0.00 1015.7
20260902061056 0 0.0 0.0 0.00 0.00 0.00 1015.5
20260902060554 0 0.0 0.0 0.00 0.00 0.00 1015.5
20260902060104 0 0.0 0.0 0.00 0.00 0.00 1015.4
20260902055556 0 0.0 0.0 0.00 0.00 0.00 1015.5
20260902055054 0 0.0 0.0 0.00 0.00 0.00 1015.6
20260902054558 0 0.0 0.0 0.00 0.00 0.00 1015.6
20260902054052 0 0.0 0.0 0.00 0.00 0.00 1015.6
20260902053554 0 0.0 0.0 0.00 0.00 0.00 1015.6
20260902053056 0 0.0 0.0 0.00 0.00 0.00 1015.6
20260902052554 0 0.0 0.0 0.00 0.00 0.00 1015.5
20260902052054 0 0.0 0.0 0.00 0.00 0.00 1015.7
20260902051559 0 0.0 0.0 0.00 0.00 0.00 1015.8
20260902051052 0 0.0 0.0 0.00 0.00 0.00 1015.6
20260902050554 0 0.0 0.0 0.00 0.00 0.00 1015.7
20260902050112 0 0.0 0.0 0.00 0.00 0.00 1015.5
20260902045554 0 0.0 0.0 0.00 0.00 0.00 1015.5
20260902045053 0 0.0 0.0 0.00 0.00 0.00 1015.6
20260902044604 0 0.0 0.0 0.00 0.00 0.00 1015.6
20260902044054 0 0.0 0.0 0.00 0.00 0.00 1015.6
20260902043555 0 0.0 0.0 0.00 0.00 0.00 1015.6
20260902043111 0 0.0 0.0 0.00 0.00 0.00 1015.6
20260902042553 0 0.0 0.0 0.00 0.00 0.00 1015.5
20260902042053 0 0.0 0.0 0.00 0.00 0.00 1015.6
20260902041604 0 0.0 0.0 0.00 0.00 0.00 1015.7
20260902041056 0 0.0 0.0 0.00 0.00 0.00 1015.6
20260902040554 0 0.0 0.0 0.00 0.00 0.00 1015.5
20260902040103 0 0.0 0.0 0.00 0.00 0.00 1015.5
20260902035556 0 0.0 0.0 0.00 0.00 0.00 1015.6
20260902035053 0 0.0 0.0 0.00 0.00 0.00 1015.6
20260902034601 0 0.0 0.0 0.00 0.00 0.00 1015.6
20260902034052 0 0.0 0.0 0.00 0.00 0.00 1015.6
20260902033552 0 0.0 0.0 0.00 0.00 0.00 1015.4
20260902033104 0 0.0 0.0 0.00 0.00 0.00 1015.6
20260902032556 0 0.0 0.0 0.00 0.00 0.00 1015.6
20260902032052 0 0.0 0.0 0.00 0.00 0.00 1015.6
20260902031604 0 0.0 0.0 0.00 0.00 0.00 1015.6
20260902031055 0 0.0 0.0 0.00 0.00 0.00 1015.5
20260902030555 0 0.0 0.0 0.00 0.00 0.00 1015.5
20260902030058 0 0.0 0.0 0.00 0.00 0.00 1015.5
20260902025553 0 0.0 0.0 0.00 0.00 0.00 1015.5
20260902025053 0 0.0 0.0 0.00 0.00 0.00 1015.6
20260902024602 0 0.0 0.0 0.00 0.00 0.00 1015.4
20260902024055 0 0.0 0.0 0.00 0.00 0.00 1015.1
20260902023554 0 0.0 0.0 0.00 0.00 0.00 1015.1
20260902023102 0 0.0 0.0 0.00 0.00 0.00 1015.2
20260902022554 0 0.0 0.0 0.00 0.00 0.00 1015.1
20260902022056 0 0.0 0.0 0.00 0.00 0.00 1015.0
20260902021605 0 0.0 0.0 0.00 0.00 0.00 1014.9
20260902021052 0 0.0 0.0 0.00 0.00 0.00 1014.7
20260902020553 0 0.0 0.0 0.00 0.00 0.00 1014.9
20260902020059 0 0.0 0.0 0.00 0.00 0.00 1014.8
20260902015557 0 0.0 0.0 0.00 0.00 0.00 1014.6
20260902015053 0 0.0 0.0 0.00 0.00 0.00 1014.5
20260902014557 0 0.0 0.0 0.00 0.00 0.00 1014.4
20260902014053 0 0.0 0.0 0.00 0.00 0.00 1014.5
20260902013556 0 0.0 0.0 0.00 0.00 0.00 1014.4
20260902013058 0 0.0 0.0 0.00 0.00 0.00 1014.3
20260902012552 0 0.0 0.0 0.00 0.00 0.00 1014.3
20260902012052 0 0.0 0.0 0.00 0.00 0.00 1014.2
20260902011601 0 0.0 0.0 0.00 0.00 0.00 1014.3
20260902011053 0 0.0 0.0 0.00 0.00 0.00 1014.3
20260902010556 0 0.0 0.0 0.00 0.00 0.00 1014.2
20260902010122 0 0.0 0.0 0.00 0.00 0.00 1014.2
20260902005556 0 0.0 0.0 0.00 0.00 0.00 1014.2
20260902005055 0 0.0 0.0 0.00 0.00 0.00 1014.2
20260902004605 0 0.0 0.0 0.00 0.00 0.00 1014.1
20260902004053 0 0.0 0.0 0.00 0.00 0.00 1014.1
20260902003553 0 0.0 0.0 0.00 0.00 0.00 1014.1
20260902003102 0 0.0 0.0 0.00 0.00 0.00 1014.1
20260902002553 0 0.0 0.0 0.00 0.00 0.00 1014.1
20260902002053 0 0.0 0.0 0.00 0.00 0.00 1014.1
20260902001605 0 0.0 0.0 0.00 0.00 0.00 1014.1
20260902001053 0 0.0 0.0 0.00 0.00 0.00 1014.2
20260902000554 0 0.0 0.0 0.00 0.00 0.00 1014.2
20260902000105 0 0.0 0.0 0.00 0.00 0.00 1014.1
20260901235554 0 0.0 0.0 0.00 0.00 0.00 1014.2
20260901235053 0 0.0 0.0 0.00 0.00 0.00 1014.2
20260901234600 0 0.0 0.0 0.00 0.00 0.00 1014.3
20260901234054 0 0.0 0.0 0.00 0.00 0.00 1014.2
20260901233554 0 0.0 0.0 0.00 0.00 0.00 1014.3
20260901233102 0 0.0 0.0 0.00 0.00 0.00 1014.2
20260901232554 0 0.0 0.0 0.00 0.00 0.00 1014.3
20260901232054 0 0.0 0.0 0.00 0.00 0.00 1014.1
20260901231558 0 0.0 0.0 0.00 0.00 0.00 1014.2
20260901231053 0 0.0 0.0 0.00 0.00 0.00 1014.3
20260901230553 0 0.0 0.0 0.00 0.00 0.00 1014.3
20260901230105 0 0.0 0.0 0.00 0.00 0.00 1014.3
20260901225554 0 0.0 0.0 0.00 0.00 0.00 1014.3
20260901225052 0 0.0 0.0 0.00 0.00 0.00 1014.4
20260901224602 0 0.0 0.0 0.00 0.00 0.00 1014.4
20260901224053 0 0.0 0.0 0.00 0.00 0.00 1014.3
20260901223555 0 0.0 0.0 0.00 0.00 0.00 1014.3
20260901223057 0 0.0 0.0 0.00 0.00 0.00 1014.3
20260901222552 0 0.0 0.0 0.00 0.00 0.00 1014.2
20260901222053 0 0.0 0.0 0.00 0.00 0.00 1014.2
20260901221624 0 0.0 0.0 0.00 0.00 0.00 1014.2
20260901221053 0 0.0 0.0 0.00 0.00 0.00 1014.1
20260901220553 0 0.0 0.0 0.00 0.00 0.00 1014.2
20260901220107 0 0.0 0.0 0.00 0.00 0.00 1014.3
20260901215553 0 0.0 0.0 0.00 0.00 0.00 1014.3
20260901215053 0 0.0 0.0 0.00 0.00 0.00 1014.3
20260901214558 0 0.0 0.0 0.00 0.00 0.00 1014.3
20260901214053 0 0.0 0.0 0.00 0.00 0.00 1014.4
20260901213553 0 0.0 0.0 0.00 0.00 0.00 1014.5
20260901213100 0 0.0 0.0 0.00 0.00 0.00 1014.7
20260901212552 0 0.0 0.0 0.00 0.00 0.00 1014.6
20260901212053 0 0.0 0.0 0.00 0.00 0.00 1014.6
20260901211610 0 0.0 0.0 0.00 0.00 0.00 1014.7
20260901211054 0 0.0 0.0 0.00 0.00 0.00 1014.7
20260901210556 0 0.0 0.0 0.00 0.00 0.00 1014.9
20260901205553 0 0.0 0.0 0.00 0.00 0.00 1014.9
20260901205053 0 0.0 0.0 0.00 0.00 0.00 1015.0
20260901204558 0 0.0 0.0 0.00 0.00 0.00 1015.1
20260901204055 0 0.0 0.0 0.00 0.00 0.00 1015.1
20260901203553 0 0.0 0.0 0.00 0.00 0.00 1015.1
20260901203106 0 0.0 0.0 0.00 0.00 0.00 1015.2
20260901202553 0 0.0 0.0 0.00 0.00 0.00 1015.2
20260901202052 0 0.0 0.0 0.00 0.00 0.00 1015.3
20260901201601 0 0.0 0.0 0.00 0.00 0.00 1015.3
20260901201053 0 0.0 0.0 0.00 0.00 0.00 1015.2
20260901200552 0 0.0 0.0 0.00 0.00 0.00 1015.3
20260901200106 0 0.0 0.0 0.00 0.00 0.00 1015.4
20260901195554 0 0.0 0.0 0.00 0.00 0.00 1015.4
20260901195056 0 0.0 0.0 0.00 0.00 0.00 1015.5
20260901194603 0 0.0 0.0 0.00 0.00 0.00 1015.5
20260901194052 0 0.0 0.0 0.00 0.00 0.00 1015.6
20260901193553 0 0.0 0.0 0.00 0.00 0.00 1015.7
20260901193124 0 0.0 0.0 0.00 0.00 0.00 1015.8
20260901192552 0 0.0 0.0 0.00 0.00 0.00 1015.8
20260901192054 0 0.0 0.0 0.00 0.00 0.00 1015.6